Retour au catalogue

STARLINK-1300

ActifCommunicationsVLEO
NORAD 45374·PAYLOAD·🇺🇸 United States

Lancé Mar 18, 2020 depuis Cape Canaveral Space Force Station

Loading…

Prochains Passages (prochaines 24 heures)

TLE

FraisSource: CelesTrak SupGP

Époque: Sep 15, 2026, 01:52 UTC

1 45374C 20019Q   26258.07826389  .00056139  00000+0  11958-2 0  2588
2 45374  53.1543 357.7043 0002372  30.0723 203.3838 15.44319145    19

Suivez STARLINK-1300 en temps réel avec AllMySat

Download on the App Store